Location: Unspecified
(0.0000°N, 0.0000°E)
Time: 05:24:44
(UTC+00:00)

deb Delta 104 - Pass Details

Date: 10 March 2026
Orbit: 1339 x 1584 km, 100.8° (Epoch: 15 April)

Event Time Altitude Azimuth Distance (km) Brightness Sun altitude
Exits shadow 19:50:18 12° 143° (SE) 3,610 ? -25.0°
Drops below altitude 10° 19:51:10 10° 147° (SSE) 3,784 ? -25.2°
Sets 19:55:12 0° 164° (SSE) 4,777 ? -26.2°
